Location: Bieujac
(44.5398°N, 0.1549°W)
Time: 03:33:47
(UTC+00:00)

CZ-4C R/B - Pass Details

Date: 17 November 2019
Orbit: 649 x 1353 km, 63.4° (Epoch: 14 December)

Event Time Altitude Azimuth Distance (km) Brightness Sun altitude
Exits shadow 05:17:50 12° 331° (NNW) 2,522 4.3 -18.0°
Maximum altitude 05:20:19 14° 357° (N) 2,436 4.5 -17.5°
Drops below altitude 10° 05:23:49 10° 28° (NNE) 2,886 5.2 -16.9°
Sets 05:28:16 0° 51° (NE) 4,008 6.3 -16.1°
